轨道通信卫星FM05星 (ORBCOMM FM05)

导读

ORBCOMM FM 5卫星于1997年12月23日成功发射,由轨道通信(ORBCOMM)主导运营,属于ORBCOMM低轨卫星通信星座的组成部分。该星座核心使命是为全球用户提供 Machine-to-Machine(M2M)机器通信、低速率数据传输服务,覆盖海事追踪、物流监管、偏远地区设备监控等场景。作为第二代ORBCOMM卫星的一员,它补充增强了星座的全球覆盖能力,推动了物联网卫星通信的早期商业化落地,服役至今为全球低功耗广域卫星连接服务提供支撑。

Basic Information
目录编号:
25117
目录名称:
ORBCOMM FM 5
国际标识:
1997-084F
轨道中心:
EARTH
卫星名称:
轨道通信卫星FM05星
卫星全名:
轨道通信卫星FM05星 (ORBCOMM FM05)
卫星状态:
在轨 (已飞行10402 天)
发射日期:
1997-12-23 UTC
国别 :
(ORB)
星等 :
--
Orbit Information
数据来源 国际轨道数据 AOE轨道数据
星历时间 2026-06-16T06:30:10+0800
13小时前
查看轨道信息
2026-06-15T00:00:00+0800
1天前
查看轨道信息
半长轴 7112.403km 7112.415km
偏心率 0.0002068 0.0002216
轨道倾角 45.015° 45.014°
近地点辐角 299.240° 290.870°
升交点赤经 59.473° 65.591°
平近点角 60.825° 280.439°
近地点 732.795km 732.701km
远地点 735.737km 735.855km
周期 99.491分钟 99.491分钟
每日圈数 14.473656 14.47362
Detailed Information
固有亮度:
8
最大亮度:
6.9
平衡模式:
三轴稳定
覆盖范围:
全球
运营商:
轨道通信公司
运营商所在国:
美国
制造商(研发单位):
轨道ATK公司
制造商所在国:
美国
使用方式:
暂无
Satellite Introduction
轨道通信FM(Orbcomm FM)是一系列低地球轨道通信卫星,由美国卫星通信公司 Orbcomm运营。 截至2015年12月,已有63颗此类卫星绕地球运行。该卫星已退役。
2D Orbit Map
3D Orbit Map
Orbit Altitude Analysis Chart
Orbit Inclination Analysis Chart
Orbit Comprehensive Analysis Chart
View Comprehensive Chart